Location: ???? ????
(41.4149°N, 22.8816°E)
Time: 14:56:01
(UTC+00:00)

SL-16 R/B - Pass Details

Date: 14 July 2020
Orbit: 985 x 1006 km, 99.5° (Epoch: 04 August)

Event Time Altitude Azimuth Distance (km) Brightness Sun altitude
Exits shadow 01:57:01 11° 252° (WSW) 2,667 4.2 -11.4°
Maximum altitude 01:58:59 13° 272° (W) 2,554 4.3 -11.2°
Drops below altitude 10° 02:01:45 10° 298° (WNW) 2,782 4.7 -10.8°
Sets 02:05:56 0° 325° (NW) 3,741 5.6 -10.2°
